Time,TemperatureF,DewpointF,PressureIn,WindDirection,WindDirectionDegrees,WindSpeedMPH,WindSpeedGustMPH,Humidity,HourlyPrecipIn,Conditions,Clouds,dailyrainin,SoftwareType,DateUTC
2013-08-25 00:00:00,64.9,35.9,29.95,WSW,257,0.0,3.0,34,0.00,,---,0.00,VWS V14.01,2013-08-25 07:00:00,
2013-08-25 00:02:00,64.6,36.3,29.96,WNW,283,0.0,4.0,35,0.00,,---,0.00,VWS V14.01,2013-08-25 07:02:00,
2013-08-25 00:07:00,64.1,38.0,29.95,West,269,0.0,4.0,38,0.00,,---,0.00,VWS V14.01,2013-08-25 07:07:00,
2013-08-25 00:12:00,63.4,39.9,29.95,West,281,0.0,4.0,42,0.00,,---,0.00,VWS V14.01,2013-08-25 07:12:00,
2013-08-25 00:17:00,62.9,40.7,29.95,West,273,0.0,4.0,44,0.00,,---,0.00,VWS V14.01,2013-08-25 07:17:00,
2013-08-25 00:22:00,62.4,41.4,29.95,WSW,252,2.0,4.0,46,0.00,,---,0.00,VWS V14.01,2013-08-25 07:22:00,
2013-08-25 00:27:00,62.0,42.1,29.95,WSW,250,1.0,4.0,48,0.00,,---,0.00,VWS V14.01,2013-08-25 07:27:00,
2013-08-25 00:30:00,62.0,42.1,29.95,WSW,246,0.0,4.0,48,0.00,,---,0.00,VWS V14.01,2013-08-25 07:30:00,
2013-08-25 00:32:00,61.6,41.7,29.95,WNW,290,2.0,5.0,48,0.00,,---,0.00,VWS V14.01,2013-08-25 07:32:00,
2013-08-25 00:37:00,61.5,41.7,29.95,West,281,3.0,5.0,48,0.00,,---,0.00,VWS V14.01,2013-08-25 07:37:00,
2013-08-25 00:42:00,61.7,41.8,29.95,SW,228,3.0,6.0,48,0.00,,---,0.00,VWS V14.01,2013-08-25 07:42:00,
2013-08-25 00:47:00,61.8,42.5,29.95,SW,231,0.0,6.0,49,0.00,,---,0.00,VWS V14.01,2013-08-25 07:47:00,
2013-08-25 00:52:00,62.5,42.0,29.95,WSW,249,1.0,6.0,47,0.00,,---,0.00,VWS V14.01,2013-08-25 07:52:00,
2013-08-25 00:57:00,62.6,42.1,29.95,WSW,252,0.0,6.0,47,0.00,,---,0.00,VWS V14.01,2013-08-25 07:57:00,
2013-08-25 01:00:00,62.6,42.1,29.95,WSW,252,0.0,6.0,47,0.00,,---,0.00,VWS V14.01,2013-08-25 08:00:00,
2013-08-25 01:02:00,63.1,42.0,29.95,WNW,288,0.0,2.0,46,0.00,,---,0.00,VWS V14.01,2013-08-25 08:02:00,
2013-08-25 01:07:00,64.4,42.0,29.94,SW,232,0.0,3.0,44,0.00,,---,0.00,VWS V14.01,2013-08-25 08:07:00,
2013-08-25 01:12:00,65.9,42.2,29.94,West,273,0.0,5.0,42,0.00,,---,0.00,VWS V14.01,2013-08-25 08:12:00,
2013-08-25 01:17:00,65.7,39.4,29.95,SSW,197,1.0,5.0,38,0.00,,---,0.00,VWS V14.01,2013-08-25 08:17:00,
2013-08-25 01:22:00,64.9,36.6,29.95,SSW,201,0.0,5.0,35,0.00,,---,0.00,VWS V14.01,2013-08-25 08:22:00,
2013-08-25 01:27:00,64.0,33.6,29.95,SSW,201,0.0,5.0,32,0.00,,---,0.00,VWS V14.01,2013-08-25 08:27:00,
2013-08-25 01:30:00,64.0,33.6,29.95,SSW,201,0.0,5.0,32,0.00,,---,0.00,VWS V14.01,2013-08-25 08:30:00,
2013-08-25 01:32:00,63.5,33.9,29.95,SSW,201,0.0,0.0,33,0.00,,---,0.00,VWS V14.01,2013-08-25 08:32:00,
2013-08-25 01:37:00,63.8,35.7,29.94,South,169,0.0,3.0,35,0.00,,---,0.00,VWS V14.01,2013-08-25 08:37:00,
2013-08-25 01:42:00,64.5,37.7,29.95,SW,230,3.0,3.0,37,0.00,,---,0.00,VWS V14.01,2013-08-25 08:42:00,
2013-08-25 01:47:00,66.3,39.3,29.94,WSW,256,0.0,4.0,37,0.00,,---,0.00,VWS V14.01,2013-08-25 08:47:00,
2013-08-25 01:52:00,67.4,42.3,29.94,West,260,2.0,6.0,40,0.00,,---,0.00,VWS V14.01,2013-08-25 08:52:00,
2013-08-25 01:57:00,68.2,43.0,29.94,West,262,1.0,6.0,40,0.00,,---,0.00,VWS V14.01,2013-08-25 08:57:00,
2013-08-25 02:00:00,68.3,43.1,29.94,WSW,256,3.0,6.0,40,0.00,,---,0.00,VWS V14.01,2013-08-25 09:00:00,
2013-08-25 02:02:00,68.3,43.7,29.94,WSW,249,2.0,4.0,41,0.00,,---,0.00,VWS V14.01,2013-08-25 09:02:00,
2013-08-25 02:07:00,68.1,44.2,29.94,WSW,255,1.0,5.0,42,0.00,,---,0.00,VWS V14.01,2013-08-25 09:07:00,
2013-08-25 02:12:00,67.9,44.6,29.94,West,278,1.0,5.0,43,0.00,,---,0.00,VWS V14.01,2013-08-25 09:12:00,
2013-08-25 02:17:00,67.7,45.0,29.94,WSW,245,3.0,5.0,44,0.00,,---,0.00,VWS V14.01,2013-08-25 09:17:00,
2013-08-25 02:22:00,67.6,44.9,29.94,West,260,2.0,6.0,44,0.00,,---,0.00,VWS V14.01,2013-08-25 09:22:00,
2013-08-25 02:27:00,67.6,45.5,29.94,West,262,3.0,6.0,45,0.00,,---,0.00,VWS V14.01,2013-08-25 09:27:00,
2013-08-25 02:30:00,67.6,45.5,29.94,SW,226,1.0,6.0,45,0.00,,---,0.00,VWS V14.01,2013-08-25 09:30:00,
2013-08-25 02:32:00,67.6,45.5,29.94,West,259,4.0,6.0,45,0.00,,---,0.00,VWS V14.01,2013-08-25 09:32:00,
2013-08-25 02:37:00,67.5,45.4,29.94,West,280,2.0,6.0,45,0.00,,---,0.00,VWS V14.01,2013-08-25 09:37:00,
2013-08-25 02:42:00,67.3,44.7,29.94,WSW,255,3.0,6.0,44,0.00,,---,0.00,VWS V14.01,2013-08-25 09:42:00,
2013-08-25 02:47:00,66.6,44.6,29.94,West,264,0.0,6.0,45,0.00,,---,0.00,VWS V14.01,2013-08-25 09:47:00,
2013-08-25 02:52:00,66.1,43.6,29.94,West,260,0.0,6.0,44,0.00,,---,0.00,VWS V14.01,2013-08-25 09:52:00,
2013-08-25 02:57:00,66.0,42.3,29.94,West,264,0.0,6.0,42,0.00,,---,0.00,VWS V14.01,2013-08-25 09:57:00,
2013-08-25 03:00:00,65.9,42.2,29.94,West,264,0.0,6.0,42,0.00,,---,0.00,VWS V14.01,2013-08-25 10:00:00,
2013-08-25 03:02:00,65.2,39.6,29.94,SSW,197,0.0,0.0,39,0.00,,---,0.00,VWS V14.01,2013-08-25 10:02:00,
2013-08-25 03:07:00,64.2,36.7,29.94,SSW,197,0.0,1.0,36,0.00,,---,0.00,VWS V14.01,2013-08-25 10:07:00,
2013-08-25 03:12:00,63.2,33.6,29.95,SSW,198,0.0,1.0,33,0.00,,---,0.00,VWS V14.01,2013-08-25 10:12:00,
2013-08-25 03:17:00,62.4,30.6,29.94,SSW,197,0.0,1.0,30,0.00,,---,0.00,VWS V14.01,2013-08-25 10:17:00,
2013-08-25 03:22:00,61.5,29.0,29.94,SSW,197,0.0,1.0,29,0.00,,---,0.00,VWS V14.01,2013-08-25 10:22:00,
2013-08-25 03:27:00,60.9,30.1,29.94,WSW,252,0.0,3.0,31,0.00,,---,0.00,VWS V14.01,2013-08-25 10:27:00,
2013-08-25 03:30:00,60.9,30.1,29.94,WSW,252,0.0,3.0,31,0.00,,---,0.00,VWS V14.01,2013-08-25 10:30:00,
2013-08-25 03:32:00,60.8,30.0,29.94,WSW,248,0.0,3.0,31,0.00,,---,0.00,VWS V14.01,2013-08-25 10:32:00,
2013-08-25 03:37:00,60.2,33.8,29.94,WSW,248,0.0,3.0,37,0.00,,---,0.00,VWS V14.01,2013-08-25 10:37:00,
2013-08-25 03:42:00,60.1,35.1,29.95,West,269,1.0,4.0,39,0.00,,---,0.00,VWS V14.01,2013-08-25 10:42:00,
2013-08-25 03:47:00,60.9,36.4,29.95,WSW,256,4.0,4.0,40,0.00,,---,0.00,VWS V14.01,2013-08-25 10:47:00,
2013-08-25 03:52:00,62.3,39.5,29.95,West,259,1.0,5.0,43,0.00,,---,0.00,VWS V14.01,2013-08-25 10:52:00,
2013-08-25 03:57:00,62.6,39.8,29.95,West,259,1.0,5.0,43,0.00,,---,0.00,VWS V14.01,2013-08-25 10:57:00,
2013-08-25 04:00:00,62.6,39.2,29.95,WSW,255,0.0,5.0,42,0.00,,---,0.00,VWS V14.01,2013-08-25 11:00:00,
2013-08-25 04:02:00,62.4,38.4,29.95,WSW,253,1.0,4.0,41,0.00,,---,0.00,VWS V14.01,2013-08-25 11:02:00,
2013-08-25 04:07:00,61.9,36.0,29.95,WNW,295,2.0,4.0,38,0.00,,---,0.00,VWS V14.01,2013-08-25 11:07:00,
2013-08-25 04:12:00,60.4,34.7,29.95,WNW,300,0.0,4.0,38,0.00,,---,0.00,VWS V14.01,2013-08-25 11:12:00,
2013-08-25 04:17:00,59.7,35.4,29.95,West,262,2.0,4.0,40,0.00,,---,0.00,VWS V14.01,2013-08-25 11:17:00,
2013-08-25 04:22:00,60.2,35.2,29.95,West,263,0.0,4.0,39,0.00,,---,0.00,VWS V14.01,2013-08-25 11:22:00,
2013-08-25 04:27:00,60.1,34.4,29.96,WNW,284,1.0,4.0,38,0.00,,---,0.00,VWS V14.01,2013-08-25 11:27:00,
2013-08-25 04:30:00,60.0,34.3,29.96,WNW,285,1.0,4.0,38,0.00,,---,0.00,VWS V14.01,2013-08-25 11:30:00,
2013-08-25 04:32:00,58.3,34.1,29.96,WNW,302,1.0,2.0,40,0.00,,---,0.00,VWS V14.01,2013-08-25 11:32:00,
2013-08-25 04:37:00,56.7,33.9,29.96,WNW,302,0.0,2.0,42,0.00,,---,0.00,VWS V14.01,2013-08-25 11:37:00,
2013-08-25 04:42:00,56.4,37.5,29.96,WNW,303,2.0,3.0,49,0.00,,---,0.00,VWS V14.01,2013-08-25 11:42:00,
2013-08-25 04:47:00,56.1,38.2,29.96,NW,305,1.0,3.0,51,0.00,,---,0.00,VWS V14.01,2013-08-25 11:47:00,
2013-08-25 04:52:00,55.9,39.0,29.96,WNW,302,0.0,3.0,53,0.00,,---,0.00,VWS V14.01,2013-08-25 11:52:00,
2013-08-25 04:57:00,56.1,40.6,29.96,West,263,0.0,3.0,56,0.00,,---,0.00,VWS V14.01,2013-08-25 11:57:00,
2013-08-25 05:00:00,56.2,40.7,29.96,West,269,1.0,3.0,56,0.00,,---,0.00,VWS V14.01,2013-08-25 12:00:00,
2013-08-25 05:02:00,56.5,41.5,29.96,WNW,300,1.0,2.0,57,0.00,,---,0.00,VWS V14.01,2013-08-25 12:02:00,
2013-08-25 05:07:00,56.8,41.8,29.96,WNW,291,0.0,4.0,57,0.00,,---,0.00,VWS V14.01,2013-08-25 12:07:00,
2013-08-25 05:12:00,56.7,42.1,29.96,West,277,1.0,4.0,58,0.00,,---,0.00,VWS V14.01,2013-08-25 12:12:00,
2013-08-25 05:17:00,56.7,42.1,29.96,SW,233,0.0,4.0,58,0.00,,---,0.00,VWS V14.01,2013-08-25 12:17:00,
2013-08-25 05:22:00,57.0,42.4,29.96,West,277,1.0,4.0,58,0.00,,---,0.00,VWS V14.01,2013-08-25 12:22:00,
2013-08-25 05:27:00,57.4,42.8,29.96,WSW,254,2.0,4.0,58,0.00,,---,0.00,VWS V14.01,2013-08-25 12:27:00,
2013-08-25 05:30:00,57.4,42.8,29.96,West,281,0.0,4.0,58,0.00,,---,0.00,VWS V14.01,2013-08-25 12:30:00,
2013-08-25 05:32:00,57.2,42.1,29.96,WNW,290,1.0,2.0,57,0.00,,---,0.00,VWS V14.01,2013-08-25 12:32:00,
2013-08-25 05:37:00,57.1,43.4,29.96,West,269,2.0,5.0,60,0.00,,---,0.00,VWS V14.01,2013-08-25 12:37:00,
2013-08-25 05:42:00,57.4,43.2,29.96,WNW,289,2.0,5.0,59,0.00,,---,0.00,VWS V14.01,2013-08-25 12:42:00,
2013-08-25 05:47:00,57.4,43.2,29.97,West,266,0.0,5.0,59,0.00,,---,0.00,VWS V14.01,2013-08-25 12:47:00,
2013-08-25 05:52:00,57.0,42.8,29.97,SW,219,0.0,5.0,59,0.00,,---,0.00,VWS V14.01,2013-08-25 12:52:00,
2013-08-25 05:57:00,56.3,42.6,29.97,West,267,0.0,5.0,60,0.00,,---,0.00,VWS V14.01,2013-08-25 12:57:00,
2013-08-25 06:00:00,56.3,42.6,29.97,West,267,0.0,5.0,60,0.00,,---,0.00,VWS V14.01,2013-08-25 13:00:00,
2013-08-25 06:02:00,55.7,42.0,29.97,West,262,0.0,2.0,60,0.00,,---,0.00,VWS V14.01,2013-08-25 13:02:00,
2013-08-25 06:07:00,55.4,42.2,29.97,WSW,252,1.0,3.0,61,0.00,,---,0.00,VWS V14.01,2013-08-25 13:07:00,
2013-08-25 06:12:00,55.2,42.0,29.97,West,276,1.0,3.0,61,0.00,,---,0.00,VWS V14.01,2013-08-25 13:12:00,
2013-08-25 06:17:00,54.7,41.1,29.97,WSW,246,2.0,3.0,60,0.00,,---,0.00,VWS V14.01,2013-08-25 13:17:00,
2013-08-25 06:22:00,54.6,41.0,29.97,WSW,255,1.0,3.0,60,0.00,,---,0.00,VWS V14.01,2013-08-25 13:22:00,
2013-08-25 06:27:00,54.5,40.5,29.97,West,278,2.0,4.0,59,0.00,,---,0.00,VWS V14.01,2013-08-25 13:27:00,
2013-08-25 06:30:00,54.5,40.5,29.97,West,278,0.0,4.0,59,0.00,,---,0.00,VWS V14.01,2013-08-25 13:30:00,
2013-08-25 06:32:00,54.2,39.8,29.97,WNW,287,0.0,2.0,58,0.00,,---,0.00,VWS V14.01,2013-08-25 13:32:00,
2013-08-25 06:37:00,53.9,39.5,29.97,WNW,282,0.0,2.0,58,0.00,,---,0.00,VWS V14.01,2013-08-25 13:37:00,
2013-08-25 06:42:00,54.2,39.8,29.97,West,276,3.0,4.0,58,0.00,,---,0.00,VWS V14.01,2013-08-25 13:42:00,
2013-08-25 06:47:00,54.6,40.6,29.98,WNW,290,0.0,4.0,59,0.00,,---,0.00,VWS V14.01,2013-08-25 13:47:00,
2013-08-25 06:52:00,54.6,41.0,29.98,West,264,0.0,4.0,60,0.00,,---,0.00,VWS V14.01,2013-08-25 13:52:00,
2013-08-25 06:57:00,55.0,41.0,29.98,West,277,0.0,4.0,59,0.00,,---,0.00,VWS V14.01,2013-08-25 13:57:00,
2013-08-25 07:00:00,55.1,41.0,29.98,WSW,256,1.0,4.0,59,0.00,,---,0.00,VWS V14.01,2013-08-25 14:00:00,
2013-08-25 07:02:00,55.8,40.8,29.98,West,280,2.0,4.0,57,0.00,,---,0.00,VWS V14.01,2013-08-25 14:02:00,
2013-08-25 07:07:00,56.6,41.6,29.98,West,269,1.0,4.0,57,0.00,,---,0.00,VWS V14.01,2013-08-25 14:07:00,
2013-08-25 07:12:00,57.6,42.5,29.98,WSW,258,1.0,4.0,57,0.00,,---,0.00,VWS V14.01,2013-08-25 14:12:00,
2013-08-25 07:17:00,58.5,43.3,29.98,WNW,288,0.0,4.0,57,0.00,,---,0.00,VWS V14.01,2013-08-25 14:17:00,
2013-08-25 07:22:00,59.5,43.8,29.98,WNW,287,2.0,4.0,56,0.00,,---,0.00,VWS V14.01,2013-08-25 14:22:00,
2013-08-25 07:27:00,60.5,44.3,29.98,West,280,1.0,4.0,55,0.00,,---,0.00,VWS V14.01,2013-08-25 14:27:00,
2013-08-25 07:30:00,60.6,43.9,29.98,West,263,2.0,4.0,54,0.00,,---,0.00,VWS V14.01,2013-08-25 14:30:00,
2013-08-25 07:32:00,61.4,44.1,29.98,West,267,2.0,5.0,53,0.00,,---,0.00,VWS V14.01,2013-08-25 14:32:00,
2013-08-25 07:37:00,62.4,44.6,29.98,WSW,248,3.0,5.0,52,0.00,,---,0.00,VWS V14.01,2013-08-25 14:37:00,
2013-08-25 07:42:00,63.7,44.7,29.98,WSW,255,0.0,5.0,50,0.00,,---,0.00,VWS V14.01,2013-08-25 14:42:00,
2013-08-25 07:47:00,65.4,44.7,29.99,SW,226,0.0,5.0,47,0.00,,---,0.00,VWS V14.01,2013-08-25 14:47:00,
2013-08-25 07:52:00,67.5,44.2,29.99,SW,226,0.0,5.0,43,0.00,,---,0.00,VWS V14.01,2013-08-25 14:52:00,
2013-08-25 07:57:00,68.7,43.4,29.99,SW,236,0.0,5.0,40,0.00,,---,0.00,VWS V14.01,2013-08-25 14:57:00,
2013-08-25 08:00:00,68.8,43.5,29.99,SW,236,0.0,5.0,40,0.00,,---,0.00,VWS V14.01,2013-08-25 15:00:00,
2013-08-25 08:02:00,69.7,43.0,29.99,SW,236,0.0,0.0,38,0.00,,---,0.00,VWS V14.01,2013-08-25 15:02:00,
2013-08-25 08:07:00,71.3,43.7,29.99,SW,236,0.0,0.0,37,0.00,,---,0.00,VWS V14.01,2013-08-25 15:07:00,
2013-08-25 08:12:00,72.5,43.3,29.99,SW,236,0.0,0.0,35,0.00,,---,0.00,VWS V14.01,2013-08-25 15:12:00,
2013-08-25 08:17:00,72.7,42.7,29.99,WNW,302,1.0,3.0,34,0.00,,---,0.00,VWS V14.01,2013-08-25 15:17:00,
2013-08-25 08:22:00,73.2,42.4,29.99,NW,308,0.0,3.0,33,0.00,,---,0.00,VWS V14.01,2013-08-25 15:22:00,
2013-08-25 08:27:00,74.1,41.6,29.99,NW,305,0.0,3.0,31,0.00,,---,0.00,VWS V14.01,2013-08-25 15:27:00,
2013-08-25 08:30:00,74.2,41.7,29.99,NW,305,0.0,3.0,31,0.00,,---,0.00,VWS V14.01,2013-08-25 15:30:00,
2013-08-25 08:32:00,75.3,41.8,29.99,ESE,113,0.0,1.0,30,0.00,,---,0.00,VWS V14.01,2013-08-25 15:32:00,
2013-08-25 08:37:00,76.7,42.1,29.99,ESE,113,0.0,1.0,29,0.00,,---,0.00,VWS V14.01,2013-08-25 15:37:00,
2013-08-25 08:42:00,77.2,41.6,29.99,NNE,22,0.0,3.0,28,0.00,,---,0.00,VWS V14.01,2013-08-25 15:42:00,
2013-08-25 08:47:00,77.2,41.6,30.00,NW,308,1.0,3.0,28,0.00,,---,0.00,VWS V14.01,2013-08-25 15:47:00,
2013-08-25 08:52:00,77.4,41.8,30.00,West,264,0.0,3.0,28,0.00,,---,0.00,VWS V14.01,2013-08-25 15:52:00,
2013-08-25 08:57:00,78.7,41.9,30.00,SW,219,0.0,3.0,27,0.00,,---,0.00,VWS V14.01,2013-08-25 15:57:00,
2013-08-25 09:00:00,78.9,42.1,30.00,SSE,156,0.0,3.0,27,0.00,,---,0.00,VWS V14.01,2013-08-25 16:00:00,
2013-08-25 09:02:00,79.5,42.6,30.00,ESE,114,0.0,0.0,27,0.00,,---,0.00,VWS V14.01,2013-08-25 16:02:00,
2013-08-25 09:07:00,79.8,41.9,30.00,ESE,114,0.0,1.0,26,0.00,,---,0.00,VWS V14.01,2013-08-25 16:07:00,
2013-08-25 09:12:00,80.2,42.2,30.00,ESE,110,1.0,2.0,26,0.00,,---,0.00,VWS V14.01,2013-08-25 16:12:00,
2013-08-25 09:17:00,80.2,41.2,30.00,East,101,5.0,5.0,25,0.00,,---,0.00,VWS V14.01,2013-08-25 16:17:00,
2013-08-25 09:22:00,80.1,41.1,30.00,East,80,4.0,5.0,25,0.00,,---,0.00,VWS V14.01,2013-08-25 16:22:00,
2013-08-25 09:27:00,79.7,40.8,30.00,NNE,29,3.0,5.0,25,0.00,,---,0.00,VWS V14.01,2013-08-25 16:27:00,
2013-08-25 09:30:00,79.7,40.8,30.00,NE,34,2.0,5.0,25,0.00,,---,0.00,VWS V14.01,2013-08-25 16:30:00,
2013-08-25 09:32:00,79.7,40.8,30.00,ENE,75,0.0,5.0,25,0.00,,---,0.00,VWS V14.01,2013-08-25 16:32:00,
2013-08-25 09:37:00,80.0,40.0,30.00,East,89,3.0,6.0,24,0.00,,---,0.00,VWS V14.01,2013-08-25 16:37:00,
2013-08-25 09:42:00,80.2,40.2,30.00,NE,53,3.0,6.0,24,0.00,,---,0.00,VWS V14.01,2013-08-25 16:42:00,
2013-08-25 09:47:00,80.5,38.2,30.00,East,83,3.0,6.0,22,0.00,,---,0.00,VWS V14.01,2013-08-25 16:47:00,
2013-08-25 09:52:00,80.8,38.5,30.00,NE,44,3.0,7.0,22,0.00,,---,0.00,VWS V14.01,2013-08-25 16:52:00,
2013-08-25 09:57:00,81.0,37.4,30.00,East,91,1.0,10.0,21,0.00,,---,0.00,VWS V14.01,2013-08-25 16:57:00,
2013-08-25 10:00:00,81.0,37.4,30.00,East,82,5.0,10.0,21,0.00,,---,0.00,VWS V14.01,2013-08-25 17:00:00,
2013-08-25 10:02:00,81.0,36.2,30.00,NE,41,3.0,8.0,20,0.00,,---,0.00,VWS V14.01,2013-08-25 17:02:00,
2013-08-25 10:07:00,81.3,35.1,30.00,ENE,58,4.0,8.0,19,0.00,,---,0.00,VWS V14.01,2013-08-25 17:07:00,
2013-08-25 10:12:00,81.6,35.4,30.00,East,98,4.0,9.0,19,0.00,,---,0.00,VWS V14.01,2013-08-25 17:12:00,
2013-08-25 10:17:00,81.9,34.3,30.00,SE,142,3.0,9.0,18,0.00,,---,0.00,VWS V14.01,2013-08-25 17:17:00,
2013-08-25 10:22:00,82.3,34.6,30.00,ESE,113,4.0,9.0,18,0.00,,---,0.00,VWS V14.01,2013-08-25 17:22:00,
2013-08-25 10:27:00,82.4,37.3,30.00,ESE,115,5.0,9.0,20,0.00,,---,0.00,VWS V14.01,2013-08-25 17:27:00,
2013-08-25 10:30:00,82.4,36.0,30.00,ESE,115,7.0,9.0,19,0.00,,---,0.00,VWS V14.01,2013-08-25 17:30:00,
2013-08-25 10:32:00,82.6,38.8,30.00,ENE,67,5.0,9.0,21,0.00,,---,0.00,VWS V14.01,2013-08-25 17:32:00,
2013-08-25 10:37:00,82.9,39.0,30.00,SE,125,6.0,9.0,21,0.00,,---,0.00,VWS V14.01,2013-08-25 17:37:00,
2013-08-25 10:42:00,83.2,38.0,30.00,NE,39,2.0,9.0,20,0.00,,---,0.00,VWS V14.01,2013-08-25 17:42:00,
2013-08-25 10:47:00,83.1,39.2,30.00,ENE,77,2.0,9.0,21,0.00,,---,0.00,VWS V14.01,2013-08-25 17:47:00,
2013-08-25 10:52:00,83.6,39.6,30.00,ENE,68,2.0,9.0,21,0.00,,---,0.00,VWS V14.01,2013-08-25 17:52:00,
2013-08-25 10:57:00,83.7,39.7,30.00,ENE,63,8.0,9.0,21,0.00,,---,0.00,VWS V14.01,2013-08-25 17:57:00,
2013-08-25 11:00:00,83.7,39.7,30.00,East,84,9.0,9.0,21,0.00,,---,0.00,VWS V14.01,2013-08-25 18:00:00,
2013-08-25 11:02:00,83.6,39.6,29.99,East,95,7.0,10.0,21,0.00,,---,0.00,VWS V14.01,2013-08-25 18:02:00,
2013-08-25 11:07:00,83.9,41.0,29.99,ENE,77,4.0,10.0,22,0.00,,---,0.00,VWS V14.01,2013-08-25 18:07:00,
2013-08-25 11:12:00,84.3,40.2,29.99,ENE,70,5.0,10.0,21,0.00,,---,0.00,VWS V14.01,2013-08-25 18:12:00,
2013-08-25 11:17:00,84.5,40.3,29.99,East,89,6.0,10.0,21,0.00,,---,0.00,VWS V14.01,2013-08-25 18:17:00,
2013-08-25 11:22:00,85.1,40.8,29.99,ENE,71,3.0,10.0,21,0.00,,---,0.00,VWS V14.01,2013-08-25 18:22:00,
2013-08-25 11:27:00,85.3,41.0,29.99,NE,36,2.0,10.0,21,0.00,,---,0.00,VWS V14.01,2013-08-25 18:27:00,
2013-08-25 11:30:00,85.3,41.0,29.99,NE,47,7.0,10.0,21,0.00,,---,0.00,VWS V14.01,2013-08-25 18:30:00,
2013-08-25 11:32:00,85.6,41.2,29.99,NNE,32,4.0,10.0,21,0.00,,---,0.00,VWS V14.01,2013-08-25 18:32:00,
2013-08-25 11:37:00,85.7,40.1,29.99,ENE,77,0.0,10.0,20,0.00,,---,0.00,VWS V14.01,2013-08-25 18:37:00,
2013-08-25 11:42:00,86.0,40.3,29.99,NE,36,2.0,10.0,20,0.00,,---,0.00,VWS V14.01,2013-08-25 18:42:00,
2013-08-25 11:47:00,86.0,39.0,29.99,East,79,0.0,10.0,19,0.00,,---,0.00,VWS V14.01,2013-08-25 18:47:00,
2013-08-25 11:52:00,86.4,39.3,29.98,NE,39,7.0,13.0,19,0.00,,---,0.00,VWS V14.01,2013-08-25 18:52:00,
2013-08-25 11:57:00,86.8,38.3,29.98,NE,37,7.0,13.0,18,0.00,,---,0.00,VWS V14.01,2013-08-25 18:57:00,
2013-08-25 12:00:00,86.9,38.3,29.98,NE,36,3.0,13.0,18,0.00,,---,0.00,VWS V14.01,2013-08-25 19:00:00,
2013-08-25 12:02:00,87.3,38.7,29.98,NE,56,0.0,9.0,18,0.00,,---,0.00,VWS V14.01,2013-08-25 19:02:00,
2013-08-25 12:07:00,87.6,37.5,29.98,East,85,0.0,9.0,17,0.00,,---,0.00,VWS V14.01,2013-08-25 19:07:00,
2013-08-25 12:12:00,87.3,37.2,29.98,NNE,32,3.0,9.0,17,0.00,,---,0.00,VWS V14.01,2013-08-25 19:12:00,
2013-08-25 12:17:00,88.0,37.8,29.98,ESE,110,0.0,10.0,17,0.00,,---,0.00,VWS V14.01,2013-08-25 19:17:00,
2013-08-25 12:22:00,89.3,37.3,29.98,NW,316,5.0,10.0,16,0.00,,---,0.00,VWS V14.01,2013-08-25 19:22:00,
2013-08-25 12:27:00,89.0,37.0,29.97,NW,311,2.0,10.0,16,0.00,,---,0.00,VWS V14.01,2013-08-25 19:27:00,
2013-08-25 12:30:00,88.9,37.0,29.97,WSW,249,2.0,10.0,16,0.00,,---,0.00,VWS V14.01,2013-08-25 19:30:00,
2013-08-25 12:32:00,89.3,37.3,29.97,ENE,71,5.0,11.0,16,0.00,,---,0.00,VWS V14.01,2013-08-25 19:32:00,
2013-08-25 12:37:00,89.0,37.0,29.97,East,92,2.0,11.0,16,0.00,,---,0.00,VWS V14.01,2013-08-25 19:37:00,
2013-08-25 12:42:00,88.2,36.4,29.97,South,181,4.0,11.0,16,0.00,,---,0.00,VWS V14.01,2013-08-25 19:42:00,
2013-08-25 12:47:00,89.2,37.2,29.97,NNW,345,0.0,11.0,16,0.00,,---,0.00,VWS V14.01,2013-08-25 19:47:00,
2013-08-25 12:52:00,90.0,37.8,29.96,NNE,13,5.0,11.0,16,0.00,,---,0.00,VWS V14.01,2013-08-25 19:52:00,
2013-08-25 12:57:00,90.7,36.8,29.96,ESE,120,7.0,12.0,15,0.00,,---,0.00,VWS V14.01,2013-08-25 19:57:00,
2013-08-25 13:00:00,90.7,36.8,29.96,SE,131,4.0,12.0,15,0.00,,---,0.00,VWS V14.01,2013-08-25 20:00:00,
2013-08-25 13:02:00,90.8,36.8,29.96,SE,134,8.0,8.0,15,0.00,,---,0.00,VWS V14.01,2013-08-25 20:02:00,
2013-08-25 13:07:00,91.7,33.9,29.97,South,183,5.0,8.0,13,0.00,,---,0.00,VWS V14.01,2013-08-25 20:07:00,
2013-08-25 13:12:00,92.5,30.4,29.96,ESE,115,3.0,12.0,11,0.00,,---,0.00,VWS V14.01,2013-08-25 20:12:00,
2013-08-25 13:17:00,92.9,30.7,29.96,South,169,7.0,14.0,11,0.00,,---,0.00,VWS V14.01,2013-08-25 20:17:00,
2013-08-25 13:22:00,93.0,28.5,29.96,SW,221,11.0,14.0,10,0.00,,---,0.00,VWS V14.01,2013-08-25 20:22:00,
2013-08-25 13:27:00,92.9,28.4,29.96,WNW,291,1.0,14.0,10,0.00,,---,0.00,VWS V14.01,2013-08-25 20:27:00,
2013-08-25 13:30:00,92.8,28.3,29.96,South,183,2.0,14.0,10,0.00,,---,0.00,VWS V14.01,2013-08-25 20:30:00,
2013-08-25 13:32:00,93.1,26.0,29.96,SSE,155,5.0,15.0,9,0.00,,---,0.00,VWS V14.01,2013-08-25 20:32:00,
2013-08-25 13:37:00,93.1,23.2,29.96,SSW,204,9.0,15.0,8,0.00,,---,0.00,VWS V14.01,2013-08-25 20:37:00,
2013-08-25 13:42:00,93.1,28.5,29.95,SSW,205,13.0,15.0,10,0.00,,---,0.00,VWS V14.01,2013-08-25 20:42:00,
2013-08-25 13:47:00,92.4,30.3,29.95,SSW,193,7.0,15.0,11,0.00,,---,0.00,VWS V14.01,2013-08-25 20:47:00,
2013-08-25 13:51:00,92.1,34.2,29.95,SE,139,11.0,15.0,13,0.00,,---,0.00,VWS V14.01,2013-08-25 20:51:00,
2013-08-25 13:56:00,91.9,32.1,29.95,SE,136,6.0,15.0,12,0.00,,---,0.00,VWS V14.01,2013-08-25 20:56:00,
2013-08-25 14:00:00,91.6,33.9,29.95,ESE,113,5.0,15.0,13,0.00,,---,0.00,VWS V14.01,2013-08-25 21:00:00,
2013-08-25 14:01:00,91.3,31.6,29.95,South,175,7.0,14.0,12,0.00,,---,0.00,VWS V14.01,2013-08-25 21:01:00,
2013-08-25 14:06:00,91.4,33.7,29.95,SSE,150,4.0,14.0,13,0.00,,---,0.00,VWS V14.01,2013-08-25 21:06:00,
2013-08-25 14:11:00,92.0,41.0,29.95,SW,214,9.0,14.0,17,0.00,,---,0.00,VWS V14.01,2013-08-25 21:11:00,
2013-08-25 14:16:00,92.2,44.0,29.95,SSE,149,10.0,15.0,19,0.00,,---,0.00,VWS V14.01,2013-08-25 21:16:00,
2013-08-25 14:21:00,92.2,39.6,29.95,West,260,3.0,15.0,16,0.00,,---,0.00,VWS V14.01,2013-08-25 21:21:00,
2013-08-25 14:26:00,92.4,38.1,29.94,SE,133,5.0,15.0,15,0.00,,---,0.00,VWS V14.01,2013-08-25 21:26:00,
2013-08-25 14:30:00,92.5,41.4,29.94,NW,315,1.0,15.0,17,0.00,,---,0.00,VWS V14.01,2013-08-25 21:30:00,
2013-08-25 14:31:00,92.5,38.2,29.94,WNW,291,1.0,11.0,15,0.00,,---,0.00,VWS V14.01,2013-08-25 21:31:00,
2013-08-25 14:36:00,92.9,41.7,29.94,South,171,9.0,13.0,17,0.00,,---,0.00,VWS V14.01,2013-08-25 21:36:00,
2013-08-25 14:41:00,93.2,42.0,29.94,South,190,10.0,13.0,17,0.00,,---,0.00,VWS V14.01,2013-08-25 21:41:00,
2013-08-25 14:46:00,93.8,40.9,29.93,WSW,239,5.0,14.0,16,0.00,,---,0.00,VWS V14.01,2013-08-25 21:46:00,
2013-08-25 14:51:00,93.3,40.5,29.93,South,191,11.0,14.0,16,0.00,,---,0.00,VWS V14.01,2013-08-25 21:51:00,
2013-08-25 14:56:00,92.8,38.4,29.93,SSW,198,6.0,16.0,15,0.00,,---,0.00,VWS V14.01,2013-08-25 21:56:00,
2013-08-25 15:00:00,92.9,36.7,29.93,SSW,210,6.0,16.0,14,0.00,,---,0.00,VWS V14.01,2013-08-25 22:00:00,
2013-08-25 15:01:00,93.8,35.6,29.93,SSE,155,12.0,13.0,13,0.00,,---,0.00,VWS V14.01,2013-08-25 22:01:00,
2013-08-25 15:06:00,92.7,36.6,29.93,SSE,159,17.0,17.0,14,0.00,,---,0.00,VWS V14.01,2013-08-25 22:06:00,
2013-08-25 15:11:00,92.7,34.7,29.93,SSW,201,11.0,17.0,13,0.00,,---,0.00,VWS V14.01,2013-08-25 22:11:00,
2013-08-25 15:16:00,92.4,34.5,29.92,SSW,198,7.0,17.0,13,0.00,,---,0.00,VWS V14.01,2013-08-25 22:16:00,
2013-08-25 15:21:00,92.2,34.3,29.93,South,183,14.0,18.0,13,0.00,,---,0.00,VWS V14.01,2013-08-25 22:21:00,
2013-08-25 15:26:00,92.1,32.2,29.93,SSW,204,7.0,19.0,12,0.00,,---,0.00,VWS V14.01,2013-08-25 22:26:00,
2013-08-25 15:30:00,92.3,34.4,29.92,SW,228,10.0,19.0,13,0.00,,---,0.00,VWS V14.01,2013-08-25 22:30:00,
2013-08-25 15:31:00,92.6,34.6,29.92,SE,146,10.0,14.0,13,0.00,,---,0.00,VWS V14.01,2013-08-25 22:31:00,
2013-08-25 15:36:00,92.8,34.8,29.92,South,183,10.0,15.0,13,0.00,,---,0.00,VWS V14.01,2013-08-25 22:36:00,
2013-08-25 15:41:00,92.7,34.7,29.92,SSW,198,9.0,17.0,13,0.00,,---,0.00,VWS V14.01,2013-08-25 22:41:00,
2013-08-25 15:46:00,92.6,34.6,29.92,South,172,10.0,22.0,13,0.00,,---,0.00,VWS V14.01,2013-08-25 22:46:00,
2013-08-25 15:51:00,92.8,34.8,29.92,SSW,197,10.0,22.0,13,0.00,,---,0.00,VWS V14.01,2013-08-25 22:51:00,
2013-08-25 15:56:00,92.6,36.5,29.92,SSW,194,12.0,22.0,14,0.00,,---,0.00,VWS V14.01,2013-08-25 22:56:00,
2013-08-25 16:00:00,92.7,36.6,29.92,SSW,193,9.0,22.0,14,0.00,,---,0.00,VWS V14.01,2013-08-25 23:00:00,
2013-08-25 16:01:00,93.1,35.0,29.92,SSE,157,5.0,11.0,13,0.00,,---,0.00,VWS V14.01,2013-08-25 23:01:00,
2013-08-25 16:06:00,92.6,38.3,29.92,SSE,162,6.0,13.0,15,0.00,,---,0.00,VWS V14.01,2013-08-25 23:06:00,
2013-08-25 16:11:00,92.4,38.1,29.92,SE,142,9.0,13.0,15,0.00,,---,0.00,VWS V14.01,2013-08-25 23:11:00,
2013-08-25 16:16:00,92.3,39.7,29.92,SSE,149,5.0,14.0,16,0.00,,---,0.00,VWS V14.01,2013-08-25 23:16:00,
2013-08-25 16:21:00,92.1,37.9,29.92,SSW,198,9.0,15.0,15,0.00,,---,0.00,VWS V14.01,2013-08-25 23:21:00,
2013-08-25 16:26:00,92.2,37.9,29.92,SSW,198,12.0,15.0,15,0.00,,---,0.00,VWS V14.01,2013-08-25 23:26:00,
2013-08-25 16:30:00,92.3,36.3,29.92,NW,319,1.0,15.0,14,0.00,,---,0.00,VWS V14.01,2013-08-25 23:30:00,
2013-08-25 16:31:00,92.6,36.5,29.92,West,278,1.0,5.0,14,0.00,,---,0.00,VWS V14.01,2013-08-25 23:31:00,
2013-08-25 16:36:00,92.5,42.9,29.92,WNW,297,7.0,10.0,18,0.00,,---,0.00,VWS V14.01,2013-08-25 23:36:00,
2013-08-25 16:41:00,92.1,39.5,29.92,West,267,0.0,10.0,16,0.00,,---,0.00,VWS V14.01,2013-08-25 23:41:00,
2013-08-25 16:46:00,92.1,41.1,29.91,NW,316,4.0,10.0,17,0.00,,---,0.00,VWS V14.01,2013-08-25 23:46:00,
2013-08-25 16:51:00,91.6,43.5,29.92,West,277,4.0,10.0,19,0.00,,---,0.00,VWS V14.01,2013-08-25 23:51:00,
2013-08-25 16:56:00,91.5,42.1,29.91,West,278,6.0,10.0,18,0.00,,---,0.00,VWS V14.01,2013-08-25 23:56:00,
2013-08-25 17:00:00,91.5,42.1,29.91,WNW,297,5.0,10.0,18,0.00,,---,0.00,VWS V14.01,2013-08-26 00:00:00,
2013-08-25 17:01:00,90.9,43.0,29.92,WNW,299,7.0,13.0,19,0.00,,---,0.00,VWS V14.01,2013-08-26 00:01:00,
2013-08-25 17:06:00,90.3,41.1,29.92,WNW,284,5.0,13.0,18,0.00,,---,0.00,VWS V14.01,2013-08-26 00:06:00,
2013-08-25 17:11:00,89.7,40.6,29.92,WNW,302,9.0,14.0,18,0.00,,---,0.00,VWS V14.01,2013-08-26 00:11:00,
2013-08-25 17:16:00,89.5,40.5,29.92,NW,308,1.0,14.0,18,0.00,,---,0.00,VWS V14.01,2013-08-26 00:16:00,
2013-08-25 17:21:00,89.7,40.6,29.92,WNW,296,7.0,14.0,18,0.00,,---,0.00,VWS V14.01,2013-08-26 00:21:00,
2013-08-25 17:26:00,89.4,38.9,29.92,West,266,13.0,14.0,17,0.00,,---,0.00,VWS V14.01,2013-08-26 00:26:00,
2013-08-25 17:30:00,89.3,40.3,29.92,WNW,294,7.0,14.0,18,0.00,,---,0.00,VWS V14.01,2013-08-26 00:30:00,
2013-08-25 17:31:00,88.9,40.0,29.92,WNW,297,8.0,13.0,18,0.00,,---,0.00,VWS V14.01,2013-08-26 00:31:00,
2013-08-25 17:36:00,88.6,39.7,29.91,NW,305,12.0,14.0,18,0.00,,---,0.00,VWS V14.01,2013-08-26 00:36:00,
2013-08-25 17:41:00,88.4,39.5,29.91,NW,305,4.0,14.0,18,0.00,,---,0.00,VWS V14.01,2013-08-26 00:41:00,
2013-08-25 17:46:00,88.3,38.0,29.91,West,281,6.0,14.0,17,0.00,,---,0.00,VWS V14.01,2013-08-26 00:46:00,
2013-08-25 17:51:00,87.9,39.2,29.91,WSW,252,5.0,14.0,18,0.00,,---,0.00,VWS V14.01,2013-08-26 00:51:00,
2013-08-25 17:56:00,87.9,37.7,29.92,WNW,302,7.0,14.0,17,0.00,,---,0.00,VWS V14.01,2013-08-26 00:56:00,
2013-08-25 18:00:00,87.8,37.6,29.92,NW,312,4.0,14.0,17,0.00,,---,0.00,VWS V14.01,2013-08-26 01:00:00,
2013-08-25 18:01:00,87.8,37.6,29.92,WSW,240,2.0,8.0,17,0.00,,---,0.00,VWS V14.01,2013-08-26 01:01:00,
2013-08-25 18:06:00,87.9,37.7,29.92,WNW,291,7.0,9.0,17,0.00,,---,0.00,VWS V14.01,2013-08-26 01:06:00,
2013-08-25 18:11:00,87.4,37.3,29.92,WNW,302,9.0,10.0,17,0.00,,---,0.00,VWS V14.01,2013-08-26 01:11:00,
2013-08-25 18:16:00,87.0,37.0,29.92,NW,322,8.0,12.0,17,0.00,,---,0.00,VWS V14.01,2013-08-26 01:16:00,
2013-08-25 18:21:00,86.8,36.8,29.92,WSW,243,5.0,12.0,17,0.00,,---,0.00,VWS V14.01,2013-08-26 01:21:00,
2013-08-25 18:26:00,86.5,36.6,29.92,NW,305,6.0,12.0,17,0.00,,---,0.00,VWS V14.01,2013-08-26 01:26:00,
2013-08-25 18:30:00,86.4,36.5,29.92,WNW,286,5.0,12.0,17,0.00,,---,0.00,VWS V14.01,2013-08-26 01:30:00,
2013-08-25 18:31:00,86.1,37.7,29.93,WNW,302,7.0,12.0,18,0.00,,---,0.00,VWS V14.01,2013-08-26 01:31:00,
2013-08-25 18:36:00,85.9,37.5,29.93,West,274,4.0,12.0,18,0.00,,---,0.00,VWS V14.01,2013-08-26 01:36:00,
2013-08-25 18:41:00,85.8,37.4,29.93,WNW,294,6.0,12.0,18,0.00,,---,0.00,VWS V14.01,2013-08-26 01:41:00,
2013-08-25 18:46:00,85.3,38.4,29.93,WNW,300,7.0,13.0,19,0.00,,---,0.00,VWS V14.01,2013-08-26 01:46:00,
2013-08-25 18:51:00,84.7,37.9,29.93,NW,314,3.0,13.0,19,0.00,,---,0.00,VWS V14.01,2013-08-26 01:51:00,
2013-08-25 18:56:00,84.5,36.4,29.94,WNW,300,6.0,13.0,18,0.00,,---,0.00,VWS V14.01,2013-08-26 01:56:00,
2013-08-25 19:00:00,84.5,37.8,29.94,NW,308,4.0,13.0,19,0.00,,---,0.00,VWS V14.01,2013-08-26 02:00:00,
2013-08-25 19:01:00,84.0,38.7,29.94,NW,309,5.0,9.0,20,0.00,,---,0.00,VWS V14.01,2013-08-26 02:01:00,
2013-08-25 19:06:00,83.4,39.4,29.94,WNW,300,4.0,9.0,21,0.00,,---,0.00,VWS V14.01,2013-08-26 02:06:00,
2013-08-25 19:11:00,82.5,39.9,29.94,WSW,248,2.0,14.0,22,0.00,,---,0.00,VWS V14.01,2013-08-26 02:11:00,
2013-08-25 19:16:00,81.7,40.3,29.94,WNW,283,3.0,14.0,23,0.00,,---,0.00,VWS V14.01,2013-08-26 02:16:00,
2013-08-25 19:21:00,80.9,40.8,29.95,NW,305,3.0,14.0,24,0.00,,---,0.00,VWS V14.01,2013-08-26 02:21:00,
2013-08-25 19:26:00,80.4,40.3,29.95,West,266,0.0,14.0,24,0.00,,---,0.00,VWS V14.01,2013-08-26 02:26:00,
2013-08-25 19:30:00,80.3,41.3,29.95,WSW,250,4.0,14.0,25,0.00,,---,0.00,VWS V14.01,2013-08-26 02:30:00,
2013-08-25 19:31:00,79.8,41.9,29.96,West,260,2.0,6.0,26,0.00,,---,0.00,VWS V14.01,2013-08-26 02:31:00,
2013-08-25 19:36:00,79.1,41.3,29.96,NW,305,4.0,9.0,26,0.00,,---,0.00,VWS V14.01,2013-08-26 02:36:00,
2013-08-25 19:41:00,79.3,40.5,29.96,WSW,249,4.0,9.0,25,0.00,,---,0.00,VWS V14.01,2013-08-26 02:41:00,
2013-08-25 19:46:00,78.9,42.1,29.97,WSW,242,6.0,9.0,27,0.00,,---,0.00,VWS V14.01,2013-08-26 02:46:00,
2013-08-25 19:51:00,78.7,41.0,29.97,WNW,285,3.0,9.0,26,0.00,,---,0.00,VWS V14.01,2013-08-26 02:51:00,
2013-08-25 19:56:00,78.7,41.9,29.97,West,276,1.0,10.0,27,0.00,,---,0.00,VWS V14.01,2013-08-26 02:56:00,
2013-08-25 20:00:00,78.6,42.8,29.97,West,276,1.0,10.0,28,0.00,,---,0.00,VWS V14.01,2013-08-26 03:00:00,
2013-08-25 20:01:00,78.1,42.4,29.97,West,267,3.0,3.0,28,0.00,,---,0.00,VWS V14.01,2013-08-26 03:01:00,
2013-08-25 20:06:00,77.4,40.8,29.98,SSW,204,0.0,4.0,27,0.00,,---,0.00,VWS V14.01,2013-08-26 03:06:00,
2013-08-25 20:11:00,76.7,39.3,29.98,NW,312,2.0,4.0,26,0.00,,---,0.00,VWS V14.01,2013-08-26 03:11:00,
2013-08-25 20:16:00,75.9,37.6,29.98,WNW,288,1.0,4.0,25,0.00,,---,0.00,VWS V14.01,2013-08-26 03:16:00,
2013-08-25 20:21:00,75.4,38.2,29.98,WSW,255,0.0,4.0,26,0.00,,---,0.00,VWS V14.01,2013-08-26 03:21:00,
2013-08-25 20:26:00,75.3,38.1,29.98,WSW,254,1.0,4.0,26,0.00,,---,0.00,VWS V14.01,2013-08-26 03:26:00,
2013-08-25 20:30:00,75.4,39.1,29.98,WSW,242,1.0,4.0,27,0.00,,---,0.00,VWS V14.01,2013-08-26 03:30:00,
2013-08-25 20:31:00,75.4,38.2,29.98,WSW,243,0.0,1.0,26,0.00,,---,0.00,VWS V14.01,2013-08-26 03:31:00,
2013-08-25 20:36:00,75.0,37.8,29.98,West,271,1.0,1.0,26,0.00,,---,0.00,VWS V14.01,2013-08-26 03:36:00,
2013-08-25 20:41:00,74.6,37.5,29.98,WNW,293,0.0,2.0,26,0.00,,---,0.00,VWS V14.01,2013-08-26 03:41:00,
2013-08-25 20:46:00,74.3,37.2,29.98,West,276,2.0,4.0,26,0.00,,---,0.00,VWS V14.01,2013-08-26 03:46:00,
2013-08-25 20:51:00,73.9,37.8,29.98,West,260,0.0,4.0,27,0.00,,---,0.00,VWS V14.01,2013-08-26 03:51:00,
2013-08-25 20:56:00,73.7,36.7,29.98,West,266,0.0,4.0,26,0.00,,---,0.00,VWS V14.01,2013-08-26 03:56:00,
2013-08-25 21:00:00,73.7,36.7,29.98,West,271,0.0,4.0,26,0.00,,---,0.00,VWS V14.01,2013-08-26 04:00:00,
2013-08-25 21:01:00,73.5,36.5,29.98,West,271,0.0,0.0,26,0.00,,---,0.00,VWS V14.01,2013-08-26 04:01:00,
2013-08-25 21:06:00,72.5,35.7,29.99,WNW,283,0.0,1.0,26,0.00,,---,0.00,VWS V14.01,2013-08-26 04:06:00,
2013-08-25 21:11:00,72.0,37.1,29.99,West,277,0.0,1.0,28,0.00,,---,0.00,VWS V14.01,2013-08-26 04:11:00,
2013-08-25 21:16:00,71.7,36.9,29.99,West,267,0.0,1.0,28,0.00,,---,0.00,VWS V14.01,2013-08-26 04:16:00,
2013-08-25 21:21:00,71.2,36.5,29.99,West,267,0.0,1.0,28,0.00,,---,0.00,VWS V14.01,2013-08-26 04:21:00,
2013-08-25 21:26:00,70.6,36.8,30.00,West,267,0.0,1.0,29,0.00,,---,0.00,VWS V14.01,2013-08-26 04:26:00,
2013-08-25 21:30:00,70.4,36.7,30.00,West,267,0.0,1.0,29,0.00,,---,0.00,VWS V14.01,2013-08-26 04:30:00,
2013-08-25 21:31:00,70.0,36.3,30.00,West,267,0.0,0.0,29,0.00,,---,0.00,VWS V14.01,2013-08-26 04:31:00,
2013-08-25 21:36:00,69.3,37.4,30.00,West,267,0.0,0.0,31,0.00,,---,0.00,VWS V14.01,2013-08-26 04:36:00,
2013-08-25 21:41:00,68.9,37.0,30.00,West,263,0.0,0.0,31,0.00,,---,0.00,VWS V14.01,2013-08-26 04:41:00,
2013-08-25 21:46:00,69.1,38.8,30.00,West,266,0.0,1.0,33,0.00,,---,0.00,VWS V14.01,2013-08-26 04:46:00,
2013-08-25 21:51:00,69.5,38.4,30.00,West,264,1.0,1.0,32,0.00,,---,0.00,VWS V14.01,2013-08-26 04:51:00,
2013-08-25 21:56:00,69.9,38.7,30.00,WSW,249,0.0,3.0,32,0.00,,---,0.00,VWS V14.01,2013-08-26 04:56:00,
2013-08-25 22:00:00,70.0,38.8,30.00,WSW,249,0.0,3.0,32,0.00,,---,0.00,VWS V14.01,2013-08-26 05:00:00,
2013-08-25 22:01:00,70.0,38.8,30.00,WSW,253,0.0,2.0,32,0.00,,---,0.00,VWS V14.01,2013-08-26 05:01:00,
2013-08-25 22:06:00,70.0,39.6,30.00,West,262,0.0,2.0,33,0.00,,---,0.00,VWS V14.01,2013-08-26 05:06:00,
2013-08-25 22:11:00,69.6,39.2,30.00,West,263,0.0,2.0,33,0.00,,---,0.00,VWS V14.01,2013-08-26 05:11:00,
2013-08-25 22:16:00,69.0,37.9,30.01,West,264,1.0,2.0,32,0.00,,---,0.00,VWS V14.01,2013-08-26 05:16:00,
2013-08-25 22:21:00,68.5,38.3,30.00,West,260,1.0,2.0,33,0.00,,---,0.00,VWS V14.01,2013-08-26 05:21:00,
2013-08-25 22:26:00,68.4,38.2,30.00,WSW,254,1.0,3.0,33,0.00,,---,0.00,VWS V14.01,2013-08-26 05:26:00,
2013-08-25 22:30:00,68.3,38.1,30.00,West,262,0.0,3.0,33,0.00,,---,0.00,VWS V14.01,2013-08-26 05:30:00,
2013-08-25 22:31:00,68.2,38.0,30.00,West,263,1.0,2.0,33,0.00,,---,0.00,VWS V14.01,2013-08-26 05:31:00,
2013-08-25 22:36:00,67.9,37.8,30.00,SW,228,0.0,2.0,33,0.00,,---,0.00,VWS V14.01,2013-08-26 05:36:00,
2013-08-25 22:41:00,67.9,37.8,30.00,WSW,248,2.0,3.0,33,0.00,,---,0.00,VWS V14.01,2013-08-26 05:41:00,
2013-08-25 22:46:00,67.8,36.9,30.00,West,259,1.0,3.0,32,0.00,,---,0.00,VWS V14.01,2013-08-26 05:46:00,
2013-08-25 22:51:00,67.6,36.7,30.00,West,259,0.0,3.0,32,0.00,,---,0.00,VWS V14.01,2013-08-26 05:51:00,
2013-08-25 22:56:00,67.3,35.7,30.01,SSW,211,1.0,3.0,31,0.00,,---,0.00,VWS V14.01,2013-08-26 05:56:00,
2013-08-25 23:00:00,67.0,36.2,30.01,South,184,2.0,3.0,32,0.00,,---,0.00,VWS V14.01,2013-08-26 06:00:00,
2013-08-25 23:01:00,66.4,35.7,30.01,SSW,207,3.0,3.0,32,0.00,,---,0.00,VWS V14.01,2013-08-26 06:01:00,
2013-08-25 23:06:00,66.3,36.4,30.01,WSW,238,0.0,3.0,33,0.00,,---,0.00,VWS V14.01,2013-08-26 06:06:00,
2013-08-25 23:11:00,66.7,36.7,30.01,SW,230,0.0,3.0,33,0.00,,---,0.00,VWS V14.01,2013-08-26 06:11:00,
2013-08-25 23:16:00,66.6,36.6,30.01,WSW,252,0.0,3.0,33,0.00,,---,0.00,VWS V14.01,2013-08-26 06:16:00,
2013-08-25 23:21:00,66.8,36.0,30.00,West,276,0.0,3.0,32,0.00,,---,0.00,VWS V14.01,2013-08-26 06:21:00,
2013-08-25 23:26:00,66.4,35.7,30.01,West,276,0.0,3.0,32,0.00,,---,0.00,VWS V14.01,2013-08-26 06:26:00,
2013-08-25 23:30:00,66.2,35.5,30.01,SW,215,0.0,3.0,32,0.00,,---,0.00,VWS V14.01,2013-08-26 06:30:00,
2013-08-25 23:31:00,66.0,36.1,30.01,West,276,1.0,2.0,33,0.00,,---,0.00,VWS V14.01,2013-08-26 06:31:00,
2013-08-25 23:36:00,65.9,35.2,30.01,WNW,302,1.0,4.0,32,0.00,,---,0.00,VWS V14.01,2013-08-26 06:36:00,
2013-08-25 23:41:00,66.2,35.5,30.01,SW,226,0.0,4.0,32,0.00,,---,0.00,VWS V14.01,2013-08-26 06:41:00,
2013-08-25 23:46:00,65.8,35.2,30.01,SSW,204,1.0,4.0,32,0.00,,---,0.00,VWS V14.01,2013-08-26 06:46:00,
2013-08-25 23:51:00,65.3,34.7,30.01,WSW,242,0.0,4.0,32,0.00,,---,0.00,VWS V14.01,2013-08-26 06:51:00,
2013-08-25 23:56:00,65.1,34.5,30.01,WSW,245,1.0,4.0,32,0.00,,---,0.00,VWS V14.01,2013-08-26 06:56:00,